Weather in Aleksandrovka

Russia / Orenburg Oblast     53°36′12″N   53°17′55″E
temp.,
°C
wind,
m/s
gust,
m/s
humid.,
%
clouds,
%
prec.,
mm/h
press.,
hPa
HPBL,
m
27 february, sat
sat2723:00−17sse8159398 0.0 1016430
02:00−15sse101794100 0.2 1011557
05:00−12sse101794100 3.9 1006624
08:00−11sse81593100 3.1 1003573
11:00−9sse71194100 3.9 1001426
14:00−5sse6995100 0.6 1000333
17:00−3sse5897100 1.4 1000270
20:000ssw5999100 1.6 998459
28 february, sun
sun2823:000ssw5999100 3.4 998443
02:000sw4699100 1.8 997328
05:00−1wnw3599100 2.9 998214
08:00−9wnw359696 0.4 999113
11:00−8wnw469797 0.4 1000213
14:00−6nw5693100 0.1 1002416
17:00−8nnw5792100 0.2 1005434
20:00−12nw3795100 0.1 1007191
1 march, mon
mon123:00−15nw239597 0.1 101032
02:00−17nw229689 0.0 101222
05:00−17nw229789 0.1 101422
08:00−17nw229783 0.1 101630
11:00−15nnw239486 0.1 1018227
14:00−13nw349395 0.1 1019319
17:00−14wnw359497 0.1 1021307
20:00−19nw2210093 0.0 102120
2 march, tue
tue223:00−22w1110084 0.0 102220
02:00−23w2210068 0.0 102120
05:00−24sw2310075 0.0 102021
08:00−23s349991 0.0 101861
11:00−18s5109896 0.1 1015286
14:00−13s71194100 0.1 1012413
17:00−11ssw71394100 1.1 1010590
20:00−9ssw61495100 1.3 1007655
3 march, wed
wed323:00−6ssw61395100 2.4 1005622
02:00−5ssw61296100 1.4 1002550
05:00−4ssw51096100 2.3 1000434
08:00−5ssw3797100 0.8 999235
11:00−4wsw249799 1.1 1000179
14:00−3wnw5795100 0.3 1000511
17:00−4wnw6892100 0.4 1001621
20:00−5nw5994100 0.2 1003523